Overview Statistics Trail Chart Weather Telemetry Raw packets
 

This is the latest recevied weather packets stored in our database for station/object SV3AQT-13. If no packets are shown the sender has not sent any weather packets the latest 10 day(s).

<< 20 21 22 23 24 25 26 >>
Time Temp. Humidity Pressure Rain* Wind** Luminosity Snow
1788522473 30.56° C 67% 1017.2 hPa 0 mm 2.24 m/s, 72° - -
1788522293 30.56° C 66% 1017.2 hPa 0 mm 2.68 m/s, 57° - -
1788522141 30.56° C 67% 1017.2 hPa 0 mm 3.13 m/s, 59° - -
1788521934 30.56° C 67% 1017.2 hPa 0 mm 2.24 m/s, 60° - -
1788521753 30.56° C 66% 1017.2 hPa 0 mm 1.79 m/s, 68° - -
1788521573 31.67° C 65% 1017.2 hPa 0 mm 0.89 m/s, 70° - -
1788521393 31.67° C 65% 1017.2 hPa 0 mm 0.45 m/s, 80° - -
1788521213 31.67° C 66% 1017.2 hPa 0 mm 0.45 m/s, 58° - -
1788521033 31.11° C 64% 1017.2 hPa 0 mm 0.89 m/s, 61° - -
1788520853 31.11° C 63% 1017.2 hPa 0 mm 1.34 m/s, 50° - -
1788520674 31.11° C 65% 1017.2 hPa 0 mm 0.89 m/s, 34° - -
1788520494 31.11° C 65% 1017.2 hPa 0 mm 0.89 m/s, 60° - -
1788520313 30.56° C 66% 1017.2 hPa 0 mm 1.34 m/s, 42° - -
1788520133 30.56° C 69% 1017.2 hPa 0 mm 0.89 m/s, 66° - -
1788519953 30.56° C 67% 1017.2 hPa 0 mm 1.79 m/s, 69° - -
1788519774 30.56° C 66% 1017.2 hPa 0 mm 1.79 m/s, 97° - -
1788519593 30.56° C 66% 1017.2 hPa 0 mm 1.34 m/s, 62° - -
1788519413 30.56° C 66% 1017.2 hPa 0 mm 1.34 m/s, 85° - -
1788519233 30° C 66% 1017.2 hPa 0 mm 2.24 m/s, 69° - -
1788519053 30° C 67% 1017.2 hPa 0 mm 1.79 m/s, 71° - -
1788518874 30° C 70% 1017.2 hPa 0 mm 2.24 m/s, 56° - -
1788518693 29.44° C 71% 1017.2 hPa 0 mm 1.79 m/s, 66° - -
1788518513 28.89° C 72% 1017.2 hPa 0 mm 1.79 m/s, 61° - -
1788518333 29.44° C 70% 1017.2 hPa 0 mm 1.79 m/s, 84° - -
1788518154 29.44° C 68% 1017.2 hPa 0 mm 1.79 m/s, 86° - -

* Rain latest hour (hover to see other rain measurements)
** Current wind speed in m/s (hover to see current wind gust speed)